Weather History for Malmstrom AFB, MT

Change the Weather History Date:

Monday, July 28, 2014

  Actual Average (KGTF) Record (KGTF)
Temperature  
Mean Temperature 74 °F 69 °F  
Max Temperature 91 °F 86 °F 100 °F (1975)
Min Temperature 57 °F 53 °F 40 °F (1894)
Degree Days  
Heating Degree Days 0 1  
Month to date heating degree days 47  
Since 1 June heating degree days 238  
Since 1 July heating degree days 47  
Cooling Degree Days 9 5  
Month to date cooling degree days 110  
Year to date cooling degree days 149  
Since 1 June cooling degree days 142  
Growing Degree Days 24 (Base 50)    
Moisture  
Dew Point 41 °F    
Average Humidity 32    
Maximum Humidity 56    
Minimum Humidity 15    
Precipitation  
Precipitation 0.00 in 0.04 in 0.51 in (1909)
Month to date precipitation 1.39  
Year to date precipitation 9.65  
Snow  
Snow 0.00 in 0.00 in 0.00 in (2002)
Month to date snowfall 0.0  
Since 1 June snowfall 0.3  
Since 1 July snowfall 0.0  
Snow Depth -    
Sea Level Pressure  
Sea Level Pressure 30.13 in    
Wind  
Wind Speed 7 mph (East)    
Max Wind Speed 14 mph    
Max Gust Speed 16 mph    
Visibility 11 miles    
Events Rain    
T = Trace of Precipitation, MM = Missing Value Source: NWS Daily Summary

Daily Weather History Graph

Daily Weather History Graph

Search for Another Location

Airport:

Trip Planner

Search our weather history database for the weather conditions in past years. The results will help you decide how hot, cold, wet, or windy it might be!

Date:

Astronomy

Jul. 28, 2014 Rise Set
Actual Time 5:57 AM MDT 9:04 PM MDT
Civil Twilight 5:21 AM MDT 9:40 PM MDT
Nautical Twilight 4:33 AM MDT 10:27 PM MDT
Astronomical Twilight 3:34 AM MDT 11:25 PM MDT
Moon 7:54 AM MDT 9:34 PM MDT
Length of Visible Light 16h 19m
Length of Day
15h 06m
Waxing Crescent, 3% of the Moon is Illuminated
Jul 28
Waxing Crescent
Aug 3
First Quarter
Aug 10
Full
Aug 17
Last Quarter
Aug 25
New

Hourly Weather History & Observations

Time (MDT) Temp. Dew Point Humidity Pressure Visibility Wind Dir Wind Speed Gust Speed Precip Events Conditions
12:56 AM 66.9 °F 39.7 °F 37% 30.15 in 12.0 mi SSE 8.1 mph - N/A   Clear
1:56 AM 66.4 °F 39.9 °F 38% 30.14 in 12.0 mi SE 12.7 mph - N/A   Clear
2:56 AM 65.1 °F 40.3 °F 40% 30.15 in 12.0 mi South 13.8 mph - N/A   Clear
3:56 AM 64.4 °F 40.5 °F 41% 30.14 in 12.0 mi SSE 11.5 mph - N/A   Mostly Cloudy
4:56 AM 57.6 °F 41.0 °F 54% 30.17 in 12.0 mi South 4.6 mph - N/A   Clear
5:57 AM 58.6 °F 40.8 °F 52% 30.17 in 12.0 mi Variable 1.2 mph - N/A   Mostly Cloudy
6:56 AM 57.9 °F 42.4 °F 56% 30.19 in 12.0 mi South 2.3 mph - N/A   Clear
7:56 AM 63.9 °F 43.2 °F 47% 30.19 in 12.0 mi NNE 3.5 mph - N/A   Clear
8:56 AM 67.1 °F 46.2 °F 47% 30.21 in 12.0 mi WSW 3.5 mph - N/A   Clear
9:56 AM 71.8 °F 42.4 °F 35% 30.20 in 12.0 mi Variable 3.5 mph - N/A   Scattered Clouds
10:56 AM 74.5 °F 42.6 °F 32% 30.14 in 10.0 mi NW 1.2 mph - N/A   Partly Cloudy
11:56 AM 78.8 °F 42.1 °F 27% 30.11 in 10.0 mi NNE 5.8 mph - N/A   Clear
12:56 PM 83.7 °F 40.6 °F 22% 30.09 in 10.0 mi Variable 6.9 mph - N/A   Clear
1:56 PM 85.3 °F 39.2 °F 20% 30.12 in 10.0 mi Variable 3.5 mph - N/A   Clear
2:56 PM 87.4 °F 39.9 °F 19% 30.09 in 10.0 mi Variable 3.5 mph - N/A   Clear
4:56 PM 91.2 °F 36.5 °F 15% 30.07 in 12.0 mi ENE 5.8 mph 12.7 mph N/A   Partly Cloudy
5:56 PM 90.5 °F 36.3 °F 15% 30.05 in 10.0 mi North 3.5 mph - N/A   Clear
6:56 PM 88.5 °F 38.7 °F 17% 30.05 in 10.0 mi NE 9.2 mph - N/A   Partly Cloudy
7:56 PM 86.0 °F 38.7 °F 19% 30.05 in 10.0 mi NNE 9.2 mph - N/A   Mostly Cloudy
8:56 PM 83.8 °F 38.3 °F 20% 30.06 in 10.0 mi North 9.2 mph - N/A   Overcast
9:56 PM 81.7 °F 41.7 °F 24% 30.07 in 10.0 mi East 5.8 mph - N/A   Mostly Cloudy
10:46 PM 82.4 °F 41.0 °F 23% 30.16 in 10.0 mi Variable 2.3 mph - N/A Rain Light Rain
10:56 PM 78.6 °F 44.1 °F 29% 30.16 in 10.0 mi ESE 12.7 mph 15.0 mph N/A Rain Light Rain Showers
11:56 PM 71.2 °F 48.0 °F 44% 30.18 in 10.0 mi SE 5.8 mph 16.1 mph N/A   Clear